Regional Weather Roundup
Issued by NWS Upton, NY

Current Version | Previous Version | Text Only | Print | Product List | Glossary Off
Versions: 1 2 3 4 5 6 7 8 9 10 11 12 13 14 15 16 17 18 19 20 21 22 23 24 25 26 27 28 29 30 31 32 33 34 35 36 37 38 39 40 41 42 43 44 45 46 47 48 49 50
000 ASUS41 KOKX 032008 RWROKX REGIONAL WEATHER ROUNDUP NATIONAL WEATHER SERVICE NEW YORK NY 400 PM EDT FRI JUL 03 2015 NOTE: "FAIR" INDICATES FEW OR NO CLOUDS BELOW 12,000 FEET WITH NO SIGNIFICANT WEATHER AND/OR OBSTRUCTIONS TO VISIBILITY. NYZ071-072-176-178-NJZ106-104-032100- NEW YORK CITY METRO AREA CITY SKY/WX TMP DP RH WIND PRES REMARKS CENTRAL PARK SUNNY 80 53 39 CALM 29.99F LAGUARDIA APRT PTSUNNY 80 51 36 CALM 29.95F KENNEDY INTL PTSUNNY 81 51 35 SW10 29.97F NEWARK/LIBERTY PTSUNNY 82 53 36 VRB5 29.95F BRNX BOT. GARD N/A 81 52 36 NW9 29.97S TETERBORO SUNNY 82 52 35 NW6 29.95F $$ NYZ177-179-078>081-032100- LONG ISLAND NEW YORK CITY SKY/WX TMP DP RH WIND PRES REMARKS FARMINGDALE MOSUNNY 81 49 32 N6 29.97F ISLIP PTSUNNY 79 48 33 N10 29.96S SHIRLEY SUNNY 75 59 57 SE7 29.99S WESTHAMPTON SUNNY 75 54 47 S7 30.00R MONTAUK POINT N/A 75 53 46 S6 30.00R $$ NYZ052-065-067-032100- HUDSON VALLEY CITY SKY/WX TMP DP RH WIND PRES REMARKS WHITE PLAINS SUNNY 78 47 33 NW6 29.97F NEWBURGH SUNNY 75 54 46 W7 30.00F MONTGOMERY SUNNY 77 55 46 CALM 29.97F POUGHKEEPSIE SUNNY 78 50 37 CALM 29.97F ALBANY MOSUNNY 77 45 32 CALM 29.98F $$ NJZ001-105-106-008-010-013-015-019>022-104-032100- NEW JERSEY CITY SKY/WX TMP DP RH WIND PRES REMARKS NEWARK/LIBERTY PTSUNNY 82 53 36 VRB5 29.95F TETERBORO SUNNY 82 52 35 NW6 29.95F CALDWELL MOSUNNY 81 51 35 N3 29.96F MORRISTOWN PTSUNNY 81 57 44 NW3 29.97F SOMERVILLE PTSUNNY 82 55 39 CALM 29.95F SUSSEX SUNNY 78 53 41 W5 29.97F ANDOVER N/A 78 55 44 CALM 29.98F TRENTON PTSUNNY 79 58 48 SW5 29.96F MILLVILLE PTSUNNY 78 64 61 S8 29.97F ATLANTIC CITY PTSUNNY 77 60 55 S8 29.98F WRIGHTSTOWN PTSUNNY 81 63 53 S9 29.94F TOMS RIVER PTSUNNY 79 61 53 SE8 29.98F BELMAR PTSUNNY 75 57 53 SE8 29.98F $$ PAZ047>061-062-071-032100- EASTERN PENNSYLVANIA CITY SKY/WX TMP DP RH WIND PRES REMARKS PHILADELPHIA PTSUNNY 80 60 50 S6 29.97S ALLENTOWN PTSUNNY 81 57 43 VRB6 29.96F SCRANTON MOSUNNY 79 53 40 CALM 29.97F $$ CTZ002-004>006-009-010-012-RIZ004-006-007-MAZ004-011-015-032100- SOUTHERN NEW ENGLAND IN CT CITY SKY/WX TMP DP RH WIND PRES REMARKS BRADLEY INTL MOSUNNY 79 49 34 SE7 29.95F HARTFORD SUNNY 79 51 37 SE12 29.96S DANBURY SUNNY 76 50 40 SW8 29.99F WTRBRY/OXFORD SUNNY 75 52 43 SW5 30.01S BRIDGEPORT SUNNY 77 52 41 SW8 29.97F MERIDEN SUNNY 79 49 34 S6 29.97S NEW HAVEN MOSUNNY 74 54 49 SW6 29.98S CHESTER FAIR 75 54 46 SW6 29.99S GROTON SUNNY 74 53 48 S9 29.97S WILLIMANTIC SUNNY 78 51 38 W7 29.97S IN RI CITY SKY/WX TMP DP RH WIND PRES REMARKS PROVIDENCE MOSUNNY 77 55 46 S13 29.96S BLOCK ISLAND SUNNY 73 55 53 S9 29.99S WESTERLY SUNNY 75 52 44 S10 29.98S IN MA CITY SKY/WX TMP DP RH WIND PRES REMARKS BOSTON MOSUNNY 73 51 46 SE13 29.95S WORCESTER SUNNY 75 46 35 SW9 29.99S WESTFIELD SUNNY 78 52 40 S6 29.95F PROVINCETOWN SUNNY 82 21 10 NE6 29.96F NANTUCKET SUNNY 75 52 44 VRB5 29.97S $$ ANZ330-335-338-340-345-350-353-355-032100- COASTAL MARINE OBSERVATIONS STATION/POSITION TIME SKY/WX TEMP WIND PRES VSBY WAVE AIR SEA DIR/SP/G HT/PER (UTC) (F) (DEG/KT/KT) (MB) (MI) (FT/S) NY HARB ENTRANCE 1950 72 70 180/ 10/ 12 1014.9 2/ 8 4S FIRE IS 1903 72 N/A 2/ 8 20S FIRE ISLAND 1950 70 71 210/ 4/ 6 1015.4 3/ 8 GREAT SOUTH BAY 1915 75 77 230/ 10/ 12 N/A 23SW MTP 1950 69 71 150/ 4/ 6 1015.3 3/ 8 HUDSON CANYON NOT AVBL KINGS POINT 1900 79 66 360/ 1/ 3 1014.3 CENTRAL LI SOUND NOT AVBL EASTERN LI SOUND 1900 69 65 210/ 6/ 6 N/A ROBBINS REEF 1900 75 160/ 10/ 11 1013.6 $$ >>>>>>>>>>>>>>>>>>>>>>>>>>>> KEY <<<<<<<<<<<<<<<<<<<<<<<<<<< > < > SKY/WX - SKY CONDITION/PRESENT WEATHER < > TMP - TEMPERATURE IN FAHRENHEIT < > DP - DEWPOINT IN FAHRENHEIT < > RH - RELATIVE HUMIDITY IN PERCENT < > WIND - DIRECTION AND SPEED IN MPH < > PRES - MEAN SEA LEVEL PRESSURE IN INCHES OF HG < > WCI - WIND CHILL INDEX < > VSB - VISIBILITY IN MILES < > HX - HEAT INDEX < > TC - TEMPERATURE IN CELSIUS < > VRB - VARIABLE WIND DIRECTION < > < >>>>>>>>>>>>>>>>>>>>>>>>>>>> KEY <<<<<<<<<<<<<<<<<<<<<<<<<<<

USA.gov is the U.S. government's official web portal to all federal, state and local government web resources and services.